• In Uzbekistan
  • List of Countries
  • For 7 days
  • Water Temperature
  • Satellite Maps
  • Weather Map
  • Weather Widgets
  • user-avatar
    Login

    Hourly Weather Albany

    Today, 27 February, Monday

    Time Temperature Precipitation Wind Pressure Humidity
    00:00 +18°C° 0 mm 1 mps 758 mmHg 93%
    01:00 +18°C° 0 mm 1 mps 758 mmHg 93%
    02:00 +18°C° 0 mm 1 mps 758 mmHg 92%
    03:00 +18°C° 0 mm 1 mps 758 mmHg 92%
    04:00 +18°C° 0 mm 1 mps 758 mmHg 92%
    05:00 +18°C° 0 mm 1 mps 758 mmHg 92%
    06:00 +19°C° 0 mm 1 mps 758 mmHg 87%
    07:00 +19°C° 0 mm 2 mps 758 mmHg 82%
    08:00 +20°C° 0 mm 2 mps 759 mmHg 76%
    09:00 +23°C° 0 mm 2 mps 759 mmHg 69%
    10:00 +24°C° 0 mm 3 mps 759 mmHg 63%
    11:00 +26°C° 0 mm 3 mps 759 mmHg 56%
    12:00 +26°C° 0 mm 3 mps 758 mmHg 56%
    13:00 +26°C° 0 mm 3 mps 758 mmHg 56%
    14:00 +26°C° 0 mm 4 mps 758 mmHg 57%
    15:00 +25°C° 0 mm 4 mps 758 mmHg 61%
    16:00 +23°C° 0 mm 4 mps 758 mmHg 65%
    17:00 +22°C° 0 mm 4 mps 758 mmHg 69%
    18:00 +21°C° 0 mm 4 mps 758 mmHg 74%
    19:00 +20°C° 0 mm 4 mps 759 mmHg 78%
    20:00 +19°C° 0 mm 3 mps 759 mmHg 82%
    21:00 +19°C° 0 mm 3 mps 759 mmHg 83%
    22:00 +19°C° 0 mm 3 mps 760 mmHg 84%
    23:00 +19°C° 0 mm 3 mps 760 mmHg 85%

    Tomorrow, 28 February, Tuesday

    Time Temperature Precipitation Wind Pressure Humidity
    00:00 +18°C° 0 mm 3 mps 760 mmHg 87%
    01:00 +18°C° 0 mm 2 mps 760 mmHg 89%
    02:00 +18°C° 0 mm 2 mps 760 mmHg 92%
    03:00 +17°C° 0 mm 3 mps 760 mmHg 92%
    04:00 +17°C° 0 mm 3 mps 760 mmHg 93%
    05:00 +17°C° 0 mm 3 mps 760 mmHg 94%
    06:00 +18°C° 0 mm 3 mps 760 mmHg 89%
    07:00 +19°C° 0 mm 3 mps 760 mmHg 84%
    08:00 +20°C° 0 mm 3 mps 760 mmHg 78%
    09:00 +22°C° 0 mm 3 mps 760 mmHg 71%
    10:00 +24°C° 0 mm 3 mps 760 mmHg 63%
    11:00 +26°C° 0 mm 4 mps 760 mmHg 55%
    12:00 +26°C° 0 mm 4 mps 760 mmHg 55%
    13:00 +26°C° 0 mm 5 mps 760 mmHg 55%
    14:00 +27°C° 0 mm 5 mps 759 mmHg 54%
    15:00 +26°C° 0 mm 5 mps 759 mmHg 58%
    16:00 +25°C° 0 mm 5 mps 759 mmHg 61%
    17:00 +23°C° 0 mm 5 mps 759 mmHg 64%
    18:00 +22°C° 0 mm 5 mps 760 mmHg 70%
    19:00 +20°C° 0 mm 5 mps 760 mmHg 76%
    20:00 +19°C° 0 mm 5 mps 761 mmHg 82%
    21:00 +19°C° 0 mm 5 mps 761 mmHg 83%
    22:00 +19°C° 0 mm 5 mps 761 mmHg 84%
    23:00 +19°C° 0 mm 5 mps 761 mmHg 85%

    Day after tomorrow, 1 March, Wednesday

    Time Temperature Precipitation Wind Pressure Humidity
    00:00 +17°C° 0 mm 5 mps 760 mmHg 86%
    01:00 +17°C° 0 mm 5 mps 760 mmHg 86%
    02:00 +17°C° 0 mm 5 mps 759 mmHg 87%
    03:00 +17°C° 0 mm 5 mps 759 mmHg 88%
    04:00 +17°C° 0 mm 5 mps 760 mmHg 89%
    05:00 +17°C° 0 mm 5 mps 760 mmHg 90%
    06:00 +19°C° 0 mm 5 mps 760 mmHg 86%
    07:00 +20°C° 0 mm 5 mps 760 mmHg 83%
    08:00 +21°C° 0 mm 5 mps 761 mmHg 79%
    09:00 +22°C° 0 mm 5 mps 760 mmHg 73%
    10:00 +25°C° 0 mm 5 mps 760 mmHg 67%
    11:00 +27°C° 0 mm 6 mps 760 mmHg 61%
    12:00 +27°C° 0 mm 6 mps 759 mmHg 60%
    13:00 +28°C° 0 mm 6 mps 759 mmHg 58%
    14:00 +28°C° 0 mm 6 mps 758 mmHg 57%
    15:00 +27°C° 0 mm 6 mps 758 mmHg 60%
    16:00 +26°C° 0 mm 6 mps 758 mmHg 64%
    17:00 +26°C° 0 mm 6 mps 758 mmHg 67%
    18:00 +23°C° 0.1 mm 6 mps 758 mmHg 74%
    19:00 +22°C° 0.1 mm 6 mps 758 mmHg 81%
    20:00 +20°C° 0.1 mm 6 mps 759 mmHg 87%
    21:00 +20°C° 0.2 mm 6 mps 759 mmHg 89%
    22:00 +20°C° 0.2 mm 6 mps 759 mmHg 90%
    23:00 +20°C° 0.2 mm 6 mps 759 mmHg 91%

    2 March, Thursday

    Time Temperature Precipitation Wind Pressure Humidity
    00:00 +20°C° 0.1 mm 6 mps 758 mmHg 91%
    01:00 +19°C° 0.1 mm 5 mps 758 mmHg 91%
    02:00 +19°C° 0.1 mm 5 mps 758 mmHg 91%
    03:00 +19°C° 0.2 mm 5 mps 758 mmHg 92%
    04:00 +19°C° 0.2 mm 5 mps 757 mmHg 93%
    05:00 +19°C° 0.2 mm 5 mps 757 mmHg 93%
    06:00 +20°C° 0.3 mm 4 mps 757 mmHg 89%
    07:00 +21°C° 0.3 mm 4 mps 758 mmHg 84%
    08:00 +22°C° 0.3 mm 4 mps 758 mmHg 79%
    09:00 +25°C° 0.2 mm 4 mps 758 mmHg 69%
    10:00 +28°C° 0.2 mm 4 mps 757 mmHg 58%
    11:00 +30°C° 0.2 mm 4 mps 757 mmHg 48%
    12:00 +33°C° 0.1 mm 3 mps 757 mmHg 42%
    13:00 +36°C° 0.1 mm 3 mps 756 mmHg 36%
    14:00 +38°C° 0.1 mm 3 mps 756 mmHg 31%
    15:00 +35°C° 0.1 mm 3 mps 755 mmHg 37%
    16:00 +33°C° 0.1 mm 4 mps 755 mmHg 44%
    17:00 +30°C° 0.1 mm 4 mps 755 mmHg 51%
    18:00 +28°C° 0.3 mm 4 mps 756 mmHg 58%
    19:00 +26°C° 0.3 mm 3 mps 756 mmHg 64%
    20:00 +24°C° 0.3 mm 3 mps 757 mmHg 71%
    21:00 +23°C° 0.2 mm 2 mps 757 mmHg 71%
    22:00 +23°C° 0.2 mm 2 mps 757 mmHg 71%
    23:00 +23°C° 0.2 mm 2 mps 757 mmHg 71%

    3 March, Friday

    Time Temperature Precipitation Wind Pressure Humidity
    00:00 +22°C° 0 mm 1 mps 757 mmHg 72%
    01:00 +22°C° 0 mm 1 mps 756 mmHg 73%
    02:00 +22°C° 0 mm 1 mps 756 mmHg 73%
    03:00 +22°C° 0 mm 1 mps 756 mmHg 77%
    04:00 +21°C° 0 mm 1 mps 756 mmHg 81%
    05:00 +21°C° 0 mm 1 mps 756 mmHg 84%
    06:00 +21°C° 0 mm 2 mps 757 mmHg 81%
    07:00 +23°C° 0 mm 2 mps 757 mmHg 78%
    08:00 +24°C° 0 mm 3 mps 758 mmHg 74%
    09:00 +26°C° 0 mm 3 mps 758 mmHg 67%
    10:00 +28°C° 0 mm 3 mps 758 mmHg 59%
    11:00 +30°C° 0 mm 3 mps 758 mmHg 51%
    12:00 +30°C° 0 mm 4 mps 758 mmHg 52%
    13:00 +30°C° 0 mm 4 mps 757 mmHg 53%
    14:00 +30°C° 0 mm 5 mps 757 mmHg 54%
    15:00 +28°C° 0 mm 5 mps 758 mmHg 61%
    16:00 +26°C° 0 mm 5 mps 758 mmHg 68%
    17:00 +23°C° 0 mm 5 mps 758 mmHg 74%
    18:00 +22°C° 0.2 mm 5 mps 759 mmHg 79%
    19:00 +21°C° 0.2 mm 4 mps 760 mmHg 84%
    20:00 +20°C° 0.2 mm 3 mps 760 mmHg 89%
    21:00 +20°C° 0.3 mm 3 mps 760 mmHg 89%
    22:00 +20°C° 0.3 mm 3 mps 761 mmHg 89%
    23:00 +20°C° 0.3 mm 2 mps 761 mmHg 89%

    4 March, Saturday

    Time Temperature Precipitation Wind Pressure Humidity
    00:00 +19°C° 0.1 mm 2 mps 761 mmHg 89%
    01:00 +19°C° 0.1 mm 3 mps 760 mmHg 89%
    02:00 +19°C° 0.1 mm 3 mps 760 mmHg 90%
    03:00 +19°C° 0 mm 3 mps 760 mmHg 89%
    04:00 +19°C° 0 mm 3 mps 760 mmHg 89%
    05:00 +19°C° 0 mm 3 mps 760 mmHg 88%
    06:00 +19°C° 0 mm 3 mps 761 mmHg 86%
    07:00 +20°C° 0 mm 3 mps 761 mmHg 84%
    08:00 +20°C° 0 mm 4 mps 762 mmHg 82%
    09:00 +21°C° 0 mm 4 mps 762 mmHg 77%
    10:00 +23°C° 0 mm 4 mps 762 mmHg 71%
    11:00 +25°C° 0 mm 5 mps 762 mmHg 66%
    12:00 +25°C° 0 mm 5 mps 761 mmHg 64%
    13:00 +25°C° 0 mm 5 mps 761 mmHg 62%
    14:00 +26°C° 0 mm 5 mps 761 mmHg 59%
    15:00 +25°C° 0.1 mm 5 mps 761 mmHg 62%
    16:00 +23°C° 0.1 mm 5 mps 761 mmHg 65%
    17:00 +23°C° 0.1 mm 5 mps 761 mmHg 68%
    18:00 +21°C° 0 mm 5 mps 761 mmHg 73%
    19:00 +20°C° 0 mm 5 mps 761 mmHg 79%
    20:00 +19°C° 0 mm 5 mps 762 mmHg 85%
    21:00 +19°C° 0.1 mm 5 mps 762 mmHg 86%
    22:00 +19°C° 0.1 mm 5 mps 761 mmHg 87%
    23:00 +19°C° 0.1 mm 6 mps 761 mmHg 88%
    Show more